This is the latest recevied weather packets stored in our database for station/object KG4ZVW. If no packets are shown the sender has not sent any weather packets the latest 10 day(s).
| Time | Temp. | Humidity | Pressure | Rain* | Wind** | Luminosity | Snow |
|---|---|---|---|---|---|---|---|
| 1777596816 | 29.44° C | 54% | 1009.3 hPa | 0 mm | - | 0 W/m² | - |
| 1777596512 | 29.44° C | 53% | 1009.3 hPa | 0 mm | - | 0 W/m² | - |
| 1777596212 | 30° C | 51% | 1009.3 hPa | 0 mm | - | 0 W/m² | - |
| 1777595911 | 29.44° C | 52% | 1009.1 hPa | 0 mm | - | 0 W/m² | - |
| 1777595607 | 29.44° C | 52% | 1009.1 hPa | 0 mm | - | 0 W/m² | - |
| 1777595301 | 29.44° C | 50% | 1009.1 hPa | 0 mm | - | 0 W/m² | - |
| 1777595017 | 30° C | 50% | 1008.8 hPa | 0 mm | - | 0 W/m² | - |
| 1777594713 | 30° C | 50% | 1008.8 hPa | 0 mm | - | 0 W/m² | - |
| 1777594408 | 30.56° C | 50% | 1008.8 hPa | 0 mm | - | 0 W/m² | - |
| 1777594101 | 30.56° C | 51% | 1008.5 hPa | 0 mm | - | 0 W/m² | - |
| 1777593816 | 30.56° C | 51% | 1008.5 hPa | 0 mm | - | 0 W/m² | - |
| 1777593511 | 30.56° C | 50% | 1008.5 hPa | 0 mm | - | 0 W/m² | - |
| 1777593209 | 31.11° C | 48% | 1008.3 hPa | 0 mm | - | 5 W/m² | - |
| 1777592904 | 31.11° C | 49% | 1008.3 hPa | 0 mm | - | 9 W/m² | - |
| 1777592600 | 31.11° C | 50% | 1008.3 hPa | 0 mm | - | 16 W/m² | - |
| 1777592317 | 31.67° C | 49% | 1008.3 hPa | 0 mm | - | 21 W/m² | - |
| 1777592013 | 31.67° C | 48% | 1008.3 hPa | 0 mm | - | 26 W/m² | - |
| 1777591707 | 31.67° C | 47% | 1008.3 hPa | 0 mm | - | 32 W/m² | - |
| 1777591403 | 31.67° C | 48% | 1008.1 hPa | 0 mm | - | 39 W/m² | - |
| 1777591117 | 31.67° C | 47% | 1008.1 hPa | 0 mm | - | 47 W/m² | - |
| 1777590812 | 32.22° C | 46% | 1008.1 hPa | 0 mm | - | 49 W/m² | - |
| 1777590508 | 32.22° C | 44% | 1008.2 hPa | 0 mm | - | 69 W/m² | - |
| 1777590202 | 32.78° C | 44% | 1008.2 hPa | 0 mm | - | 114 W/m² | - |
| 1777589917 | 32.22° C | 45% | 1008.2 hPa | 0 mm | - | 137 W/m² | - |
| 1777589613 | 32.22° C | 44% | 1007.9 hPa | 0 mm | - | 162 W/m² | - |
* Rain latest hour (hover to see other rain measurements)
** Current wind speed in m/s (hover to see current wind gust speed)